Погода в Дарганате

Погода в Дарганате : погода сейчас, прогноз погоды и архив. Всё, что Вы хотите узнать о погоде в Дарганате!

Хотите узнать прогноз погоды в Дарганате? Тогда Вам сюда: Погода в Дарганате

Поиск расширенной информации на нашем сайте:

Другие новости

Новости СМИ2

Главная страница сайта

Новости сайта

03.07.2017

Напоминаем, что на нашем специализированном сайте Метеоцентр.Азия вы можете получить высокодетализированные автоматические прогнозы погоды по пунктам России, СНГ и мира в авиационном формате (включающие направление и скорость ветра, видимость, явления погоды, количество и форму облачности, нижнюю и верхнюю границу облачности).


Погода в Дарганате - сегодня

Время (UTC), дата Ветер
(°,м/с) 
Видим.   Явления Облачность Т
(°С)
Тd
(°С)
f(%) Тe
(°С)
Pmin
(гПа)
dP
(гПа)
Po
(мм)
O2
(г/м3)
Тmin Tmax R s Состояние
почвы
12 17.02.18 050 (СВ) 20000 м    8/0 верхняя 
[Ci ing]
+6 -5.7 43 +5  1030.9  -2  760  300           
15 17.02.18 060 (СВ) 20000 м    6/0 средняя 
[Ac As]
+3.2 -3.6 61 +4  1029.8  -1.1  759  303    +6.4       
18 17.02.18 040 (СВ) 20000 м    ясно 
+1 -5 64 1029.7  -0.3  759  305    +6.4       
21 17.02.18 030 (СВ) 10 км    ясно 
-1 -6.1 68 1029  -0.8  758  307           
00 18.02.18 030 (СВ) 20000 м    ясно 
-3.1 -7.7 70 -5  1028.1  -1  757  309           
03 18.02.18 020 (С) 20000 м    3/0 средняя 
[Ac cast]
-4.6 -8.9 72 -7  1028.4  0.2  758  311           
06 18.02.18 080 (В) 20000 м    ясно 
+0.8 -7.3 55 -1  1027.8  -0.4  757  305  -5         
09 18.02.18 070 (В) 20000 м    3/0 средняя 
[Ac cast]
+5.8 -6 42 +3  1025.6  -1.8  756  299           
12 18.02.18 080 (В) 20000 м    4/0 средняя 
[Ac cast]
+9.2 -6.4 33 +7  1023.2  -2  754  295           
15 18.02.18 090 (В) 20000 м    ясно 
+4.8 -3.6 54 +4  1022.4  -1.1  754  299    +9.8       
18 18.02.18 090 (В) 20000 м    ясно 
+2.1 -4 64 -1  1021.5  -1.1  753  301    +9.8       
21 18.02.18 090 (В) 20000 м    ясно 
+1.6 -5 61 -1  1019.4  -2.1  751  301           
00 19.02.18 090 (В) 20000 м    3/0 верхняя 
[Ci ing]
+1.9 -5.4 58 -1  1017.1  -2.3  749  300           
03 19.02.18 010 (С) 20000 м    9/3 600 м кучево-дожд., средняя 
[Cb cap|Ac As]
+0 -5.9 64 -1  1017  -0.2  749  303           
06 19.02.18 060 (СВ) 20000 м    9/0 средняя 
[Ac As]
+3.2 -5.5 53 +2  1016.4  -0.3  749  299  -0.4         
09 19.02.18 060 (СВ) 20000 м    9/0 средняя 
[Ac As]
+8.9 -3.8 40 +8  1013.8  -2.2  747  292           
12 19.02.18 040 (СВ) 20000 м    9/0 средняя 
[Ac As]
+11.5 -4.1 33 +11  1012.5  -1.1  747  289           
15 19.02.18 250 (З) 20000 м    9/3 600 м кучево-дожд., средняя 
[Cb cap|Ac As]
+9 -1.4 48 +8  1013.3  0.6  747  292    +12       
18 19.02.18 тихо ()   20000 м    9/3 600 м кучево-дожд., средняя 
[Cb cap|Ac As]
+5.8 -1.2 61 +6  1014.3  0.8  748  295    +12       
21 19.02.18 тихо ()   20000 м    9/3 600 м кучево-дожд., средняя 
[Cb cap|Ac As]
+4.1 -1.1 69 +4  1012.6  -1.8  746  296           
00 20.02.18 260 (З) 10 км  {ливн. осадки}  10/10 600 м кучево-дожд. 
[Cb cap]
+4.3 -3.5 57 +4  1012.8  0.2  746  296           
03 20.02.18 //0 (С) //  н/о    н/о 
                мокрая 
06 20.02.18 300 (СЗ) 20000 м    4/0 средняя 
[Ac cast]
-0.2 -4 75 -2  1028.7  758  306  -2.4         
09 20.02.18 290 (З) 20000 м    9/0 кучево-дожд., средняя 
[Cb cap|Ac As]
+7.3 -3.6 46 +5  1016.7  0.6  749  294           
12 20.02.18 280 (З) 20000 м    9/9 600 м кучево-дожд. 
[Cb cap]
+6 +0.6 68 +4  1018.3  1.2  750  296           
Время (UTC), дата Ветер
(°,м/с) 
Видим.   Явления Облачность Т
(°С)
Тd
(°С)
f(%) Тe
(°С)
Pmin
(гПа)
dP
(гПа)
Po
(мм)
O2
(г/м3)
Тmin Tmax R s Состояние
почвы

Для получения пояснительной информации подведите курсор к названию столбца.

ПОГОДА в Дарганате - архив

Всё, что Вы хотите узнать о погоде в Дарганате - удобно и подробно!

Выберите нужную дату (начиная с 1 января 2015* года) и нажмите кнопку "Найти".
Будут отображены архивные сводки погоды по пункту Дарганата, начиная с указанной даты.


Отображать данные в формате CSV (для использования в таблицах Excel)


Внимание! Наш архив погоды предназначен исключительно для личного некоммерческого использования в познавательных целях. Если Вам необходимы официальные справки о состоянии погоды (для производственных, юридических, коммерческих и т.п. целей), обращайтесь в органы Росгидромета.

*Примечание: данная дата относится к архиву по метеостанциям СССР (Россия, СНГ, Балтия).
Архив по метеостанциям Зарубежной Европы и Азии (кроме Китая) хранится 10 дней, по другим регионам земного шара (Китай, Африка, Америка, Австралия, Океания) - 1 день.

Дарганата - район местоположения метеостанции


Название, широта, долгота, высота метеостанции:
Дарганата 40.5°ш. 62.3°д. 142 м над ур. моря [Туркменистан]

Дополнительная информация

В oтличие oт бoльшинства пoгoдных сайтoв мы публикуем пoдрoбную метеoинфoрмацию в детальнoм прoфессиoнальнoм фoрмате.

Характеристики температуры и влажнoсти вoздуха измеряются на высoте 2 м в тени вдали oт зданий и деревьев.
Скoрoсть ветра измеряется на высoте 10 м (на урoвне рoста челoвека скoрoсть ветра ниже в 1.5-2 раза). Если метеoстанция нахoдится в гoрoде или в лесу, тo скoрoсть ветра занижена на 2-4 м/с пo сравнению с oткрытым местoм. Скoрoсть ветра над акватoриями крупных рек и oзёр, а также на вершинах хoлмoв на 2-5 м/с выше, чем в oбычных услoвиях.
Атмoсфернoе давление в разных тoчках местнoсти мoжет значительнo oтличаться oт давления на метеoстанции, в зависимoсти oт услoвий рельефа (при пoдъёме на 10 м давление пoнижается примернo на 1 мм рт.ст.).